GEFSMW_prec_meanprecacc_114.txt.gz
Total_Precipitation_Accumulation
0.12 0.12 0.14 0.18 0.20 0.22 0.27 0.33 0.39 0.55 0.69 0.79 0.91 1.10 1.28 1.46 1.62 1.74 1.63 1.48 1.44 1.61 1.72 1.64 1.71 1.73 1.58 1.57 1.61 1.65 1.59 1.32 1.17 1.19 1.03 0.77 0.54 0.55 0.54 0.52 0.51 0.53 0.56
0.08 0.07 0.06 0.09 0.10 0.12 0.17 0.23 0.30 0.42 0.55 0.70 0.93 1.15 1.45 1.54 1.63 1.77 1.82 1.75 1.68 1.84 1.87 1.94 2.00 2.01 1.98 1.93 1.80 1.86 1.93 1.68 1.45 1.50 1.70 1.30 0.90 0.59 0.47 0.50 0.50 0.53 0.62
0.07 0.05 0.05 0.05 0.07 0.08 0.10 0.17 0.28 0.44 0.66 0.88 1.19 1.48 1.73 1.81 1.86 1.81 1.87 1.96 2.00 2.07 2.10 2.15 2.20 2.17 2.01 1.98 2.06 2.14 2.43 2.22 1.86 1.68 1.87 1.60 1.28 0.99 0.63 0.54 0.57 0.60 0.63
0.08 0.06 0.07 0.07 0.08 0.11 0.15 0.24 0.40 0.62 0.89 1.23 1.57 1.81 2.04 2.14 1.98 1.96 2.00 2.02 1.97 2.00 2.12 2.13 2.11 2.07 1.99 2.04 2.08 2.10 2.43 2.58 2.26 1.97 1.65 1.38 1.30 1.30 1.01 0.73 0.66 0.70 0.63
0.14 0.12 0.14 0.15 0.19 0.24 0.32 0.47 0.71 1.00 1.28 1.50 1.69 1.91 2.04 2.05 2.03 2.00 1.99 1.92 1.90 1.87 1.90 1.92 2.00 2.02 2.05 2.08 2.21 2.29 2.50 2.50 2.46 2.26 2.11 1.88 1.55 1.19 1.17 1.11 0.88 0.82 0.70
0.19 0.21 0.23 0.29 0.36 0.40 0.54 0.72 0.90 1.18 1.35 1.47 1.59 1.79 1.93 1.97 2.00 1.98 1.98 1.97 1.94 1.84 1.78 1.75 1.82 1.93 2.08 2.13 2.17 2.27 2.48 2.59 2.64 2.52 2.29 2.15 1.96 1.66 1.49 1.23 1.10 1.06 0.90
0.27 0.29 0.38 0.52 0.60 0.64 0.72 0.86 0.95 1.12 1.22 1.27 1.37 1.51 1.58 1.65 1.71 1.70 1.66 1.61 1.56 1.54 1.56 1.64 1.73 1.86 1.98 2.05 2.14 2.26 2.28 2.38 2.61 2.61 2.43 2.20 1.99 1.92 1.77 1.60 1.30 1.14 0.94
0.43 0.54 0.67 0.77 0.84 0.85 0.81 0.83 0.95 1.00 0.98 1.01 1.02 1.14 1.23 1.30 1.38 1.39 1.38 1.40 1.43 1.43 1.36 1.41 1.50 1.72 1.92 2.00 2.07 2.08 2.05 2.09 2.25 2.26 2.32 2.27 2.00 1.92 1.77 1.69 1.72 1.46 1.22
0.66 0.89 1.07 1.18 1.26 1.17 0.98 0.84 0.84 0.83 0.80 0.86 0.90 0.95 1.05 1.09 1.12 1.16 1.11 1.21 1.25 1.23 1.18 1.20 1.22 1.33 1.56 1.82 1.97 1.90 1.82 1.79 1.90 1.96 2.07 2.17 2.18 2.10 1.96 1.91 1.88 1.76 1.49
1.09 1.34 1.59 1.70 1.68 1.49 1.22 0.94 0.79 0.74 0.70 0.73 0.78 0.85 0.89 0.90 0.89 0.92 0.88 0.95 1.04 1.04 1.04 1.01 1.06 1.18 1.29 1.49 1.71 1.80 1.75 1.71 1.74 1.83 1.97 2.09 2.18 2.24 2.04 1.98 1.92 1.75 1.58
1.53 1.66 1.81 1.86 1.60 1.42 1.17 0.92 0.77 0.79 0.78 0.78 0.78 0.78 0.76 0.74 0.74 0.74 0.71 0.73 0.78 0.79 0.82 0.96 1.03 1.10 1.18 1.34 1.59 1.76 1.77 1.69 1.67 1.65 1.71 1.85 1.96 2.18 2.16 2.06 1.94 1.78 1.58
1.27 1.35 1.41 1.36 1.32 1.27 1.10 0.94 0.85 0.85 0.88 0.88 0.86 0.78 0.70 0.67 0.67 0.64 0.57 0.57 0.55 0.54 0.66 0.78 0.83 0.88 0.93 1.09 1.38 1.58 1.61 1.56 1.46 1.43 1.51 1.72 1.91 2.12 2.22 2.17 2.03 1.90 1.75
1.10 1.10 1.10 1.11 1.14 1.11 0.99 0.97 0.94 0.94 0.94 0.92 0.82 0.74 0.68 0.59 0.55 0.49 0.45 0.51 0.51 0.57 0.66 0.75 0.80 0.84 0.89 0.92 1.02 1.18 1.29 1.27 1.22 1.23 1.26 1.29 1.47 1.73 1.93 1.98 1.99 2.01 1.97
0.86 0.87 0.91 0.94 1.03 1.00 0.96 0.91 0.87 0.92 1.01 1.06 0.96 0.85 0.73 0.62 0.56 0.49 0.45 0.43 0.45 0.51 0.57 0.61 0.69 0.79 0.84 0.83 0.83 0.87 0.94 0.95 0.99 1.03 1.09 1.11 1.12 1.28 1.45 1.59 1.79 2.00 1.99
0.55 0.60 0.64 0.64 0.62 0.59 0.61 0.63 0.69 0.80 0.94 1.08 1.07 0.93 0.74 0.61 0.54 0.50 0.43 0.40 0.41 0.42 0.48 0.53 0.56 0.63 0.70 0.76 0.76 0.67 0.66 0.73 0.80 0.84 0.84 0.85 0.92 1.04 1.11 1.18 1.50 1.81 1.93
0.33 0.31 0.32 0.33 0.34 0.31 0.28 0.27 0.33 0.48 0.73 0.99 0.97 0.75 0.58 0.46 0.41 0.41 0.39 0.35 0.34 0.39 0.44 0.44 0.47 0.56 0.58 0.68 0.66 0.52 0.52 0.56 0.66 0.75 0.74 0.67 0.67 0.73 0.77 0.85 1.01 1.25 1.46
0.20 0.20 0.20 0.20 0.20 0.19 0.18 0.19 0.26 0.38 0.54 0.64 0.60 0.51 0.40 0.38 0.41 0.43 0.37 0.34 0.34 0.35 0.38 0.39 0.40 0.46 0.57 0.58 0.42 0.40 0.44 0.52 0.58 0.66 0.73 0.66 0.56 0.61 0.65 0.75 0.83 0.83 0.89
0.11 0.11 0.12 0.13 0.15 0.16 0.19 0.22 0.27 0.34 0.38 0.40 0.40 0.34 0.30 0.31 0.34 0.35 0.34 0.40 0.44 0.42 0.42 0.44 0.44 0.44 0.49 0.46 0.33 0.34 0.38 0.46 0.53 0.63 0.72 0.77 0.68 0.67 0.76 0.77 0.79 0.74 0.70
0.04 0.03 0.03 0.03 0.05 0.05 0.06 0.08 0.10 0.12 0.12 0.12 0.13 0.12 0.12 0.13 0.14 0.16 0.22 0.33 0.40 0.42 0.44 0.48 0.48 0.43 0.40 0.39 0.30 0.29 0.38 0.46 0.53 0.56 0.62 0.69 0.66 0.78 0.85 0.84 0.95 0.92 0.82
0.01 0.00 0.00 0.00 0.00 0.00 0.00 0.00 0.00 0.01 0.01 0.01 0.01 0.01 0.02 0.02 0.04 0.06 0.09 0.15 0.19 0.24 0.32 0.34 0.38 0.41 0.38 0.46 0.33 0.32 0.38 0.49 0.60 0.64 0.63 0.76 0.75 0.78 0.76 0.74 0.95 0.97 0.87
0.00 0.00 0.00 0.00 0.00 0.00 0.00 0.00 0.00 0.00 0.00 0.00 0.00 0.00 0.00 0.00 0.01 0.02 0.03 0.06 0.08 0.12 0.17 0.21 0.27 0.34 0.39 0.46 0.43 0.46 0.48 0.54 0.68 0.70 0.63 0.58 0.66 0.56 0.60 0.64 0.68 0.88 0.88
0.00 0.00 0.00 0.00 0.00 0.00 0.00 0.00 0.00 0.00 0.00 0.00 0.00 0.00 0.00 0.00 0.01 0.01 0.02 0.02 0.03 0.06 0.09 0.11 0.16 0.22 0.27 0.33 0.38 0.38 0.41 0.47 0.60 0.68 0.57 0.55 0.61 0.47 0.45 0.47 0.57 0.69 0.79
0.00 0.00 0.00 0.00 0.00 0.00 0.00 0.00 0.00 0.00 0.00 0.00 0.00 0.00 0.00 0.01 0.01 0.01 0.01 0.02 0.03 0.05 0.06 0.09 0.15 0.21 0.28 0.29 0.25 0.22 0.24 0.29 0.43 0.49 0.50 0.50 0.47 0.43 0.41 0.42 0.47 0.54 0.63
0.00 0.00 0.00 0.00 0.00 0.00 0.00 0.00 0.00 0.00 0.00 0.00 0.00 0.00 0.01 0.01 0.01 0.02 0.03 0.03 0.04 0.05 0.09 0.14 0.19 0.23 0.26 0.28 0.25 0.26 0.28 0.27 0.32 0.34 0.34 0.37 0.40 0.43 0.42 0.40 0.43 0.50 0.59
0.00 0.00 0.00 0.00 0.00 0.00 0.00 0.00 0.00 0.00 0.00 0.00 0.00 0.00 0.00 0.01 0.01 0.01 0.01 0.02 0.03 0.04 0.10 0.17 0.21 0.21 0.21 0.15 0.14 0.24 0.34 0.40 0.46 0.53 0.49 0.50 0.50 0.47 0.42 0.39 0.40 0.43 0.47
0.00 0.00 0.00 0.00 0.00 0.00 0.00 0.00 0.00 0.00 0.00 0.00 0.00 0.00 0.00 0.01 0.01 0.01 0.01 0.01 0.02 0.05 0.07 0.07 0.09 0.10 0.09 0.09 0.10 0.16 0.26 0.34 0.45 0.60 0.66 0.69 0.70 0.64 0.53 0.43 0.37 0.32 0.33

GEFSMW_prec_meanprecacc_120.txt.gz
Total_Precipitation_Accumulation
0.12 0.12 0.14 0.18 0.20 0.22 0.27 0.33 0.39 0.55 0.69 0.79 0.91 1.10 1.28 1.46 1.62 1.74 1.63 1.48 1.44 1.61 1.72 1.64 1.71 1.73 1.59 1.57 1.62 1.66 1.59 1.33 1.18 1.21 1.05 0.79 0.58 0.60 0.60 0.58 0.58 0.59 0.61
0.09 0.07 0.07 0.09 0.10 0.12 0.17 0.23 0.30 0.42 0.55 0.70 0.93 1.15 1.45 1.54 1.63 1.77 1.82 1.75 1.68 1.84 1.87 1.95 2.00 2.02 1.99 1.94 1.82 1.87 1.94 1.70 1.46 1.52 1.72 1.32 0.92 0.63 0.52 0.56 0.56 0.61 0.68
0.07 0.05 0.05 0.05 0.07 0.08 0.10 0.17 0.28 0.44 0.66 0.88 1.19 1.48 1.73 1.81 1.86 1.81 1.87 1.96 2.00 2.07 2.10 2.15 2.20 2.18 2.02 1.99 2.07 2.15 2.44 2.23 1.87 1.70 1.89 1.62 1.29 1.03 0.67 0.59 0.62 0.66 0.70
0.09 0.06 0.07 0.07 0.08 0.11 0.15 0.24 0.40 0.62 0.89 1.23 1.57 1.81 2.04 2.14 1.98 1.96 2.00 2.02 1.97 2.00 2.12 2.13 2.12 2.07 1.99 2.04 2.09 2.10 2.44 2.58 2.27 1.98 1.66 1.40 1.32 1.32 1.03 0.76 0.69 0.75 0.68
0.14 0.13 0.14 0.15 0.19 0.24 0.32 0.47 0.71 1.00 1.28 1.50 1.69 1.91 2.04 2.05 2.03 2.00 1.99 1.92 1.90 1.87 1.90 1.92 2.01 2.03 2.05 2.09 2.22 2.29 2.50 2.50 2.47 2.28 2.13 1.90 1.56 1.21 1.19 1.13 0.91 0.85 0.74
0.19 0.21 0.23 0.29 0.36 0.40 0.54 0.72 0.90 1.18 1.35 1.47 1.59 1.79 1.93 1.97 2.00 1.98 1.98 1.97 1.94 1.84 1.78 1.75 1.82 1.93 2.08 2.13 2.18 2.28 2.49 2.60 2.65 2.54 2.30 2.16 1.97 1.67 1.51 1.25 1.12 1.09 0.93
0.27 0.29 0.38 0.52 0.60 0.64 0.72 0.86 0.95 1.12 1.22 1.27 1.37 1.51 1.58 1.65 1.71 1.70 1.66 1.61 1.56 1.55 1.57 1.65 1.74 1.86 1.98 2.06 2.14 2.27 2.29 2.40 2.63 2.62 2.44 2.21 2.00 1.93 1.78 1.62 1.33 1.16 0.98
0.43 0.54 0.67 0.77 0.84 0.85 0.81 0.83 0.95 1.00 0.98 1.01 1.02 1.14 1.23 1.30 1.38 1.39 1.38 1.41 1.44 1.44 1.37 1.41 1.51 1.73 1.93 2.00 2.08 2.09 2.06 2.10 2.27 2.28 2.33 2.28 2.01 1.93 1.78 1.70 1.74 1.47 1.26
0.66 0.89 1.07 1.18 1.26 1.17 0.98 0.84 0.84 0.83 0.80 0.86 0.90 0.95 1.05 1.09 1.12 1.16 1.12 1.22 1.26 1.24 1.18 1.20 1.23 1.35 1.58 1.83 1.98 1.91 1.82 1.80 1.92 1.97 2.07 2.19 2.20 2.10 1.98 1.93 1.90 1.78 1.52
1.09 1.34 1.59 1.70 1.68 1.49 1.22 0.94 0.79 0.74 0.70 0.73 0.78 0.85 0.89 0.90 0.89 0.93 0.88 0.95 1.04 1.04 1.04 1.01 1.06 1.19 1.30 1.49 1.72 1.80 1.76 1.72 1.75 1.85 1.98 2.10 2.19 2.25 2.06 2.00 1.94 1.77 1.60
1.53 1.66 1.81 1.86 1.60 1.42 1.17 0.92 0.77 0.79 0.78 0.78 0.78 0.78 0.76 0.74 0.74 0.74 0.71 0.73 0.78 0.79 0.82 0.96 1.03 1.11 1.18 1.35 1.60 1.76 1.77 1.70 1.68 1.67 1.73 1.86 1.96 2.19 2.17 2.09 1.96 1.80 1.60
1.27 1.35 1.41 1.36 1.32 1.27 1.10 0.94 0.85 0.85 0.88 0.88 0.86 0.78 0.70 0.67 0.67 0.64 0.57 0.57 0.55 0.54 0.66 0.78 0.83 0.88 0.93 1.09 1.39 1.58 1.62 1.56 1.47 1.45 1.54 1.73 1.92 2.14 2.23 2.19 2.04 1.92 1.77
1.10 1.10 1.10 1.11 1.14 1.11 0.99 0.97 0.94 0.94 0.94 0.92 0.82 0.74 0.68 0.59 0.55 0.49 0.45 0.51 0.52 0.57 0.66 0.75 0.80 0.84 0.89 0.92 1.02 1.18 1.29 1.28 1.22 1.24 1.28 1.33 1.51 1.75 1.95 2.00 2.02 2.04 2.00
0.86 0.87 0.91 0.94 1.03 1.00 0.96 0.91 0.87 0.92 1.01 1.06 0.96 0.85 0.73 0.62 0.56 0.49 0.45 0.43 0.45 0.51 0.57 0.61 0.69 0.79 0.84 0.83 0.83 0.87 0.95 0.96 0.99 1.04 1.10 1.14 1.15 1.31 1.49 1.62 1.82 2.03 2.03
0.55 0.60 0.64 0.64 0.62 0.59 0.61 0.63 0.69 0.80 0.94 1.08 1.07 0.93 0.74 0.61 0.54 0.50 0.43 0.40 0.41 0.42 0.48 0.53 0.57 0.63 0.71 0.76 0.77 0.68 0.66 0.73 0.81 0.85 0.85 0.88 0.95 1.06 1.13 1.20 1.52 1.83 1.96
0.33 0.31 0.32 0.33 0.34 0.31 0.28 0.27 0.33 0.48 0.73 0.99 0.97 0.75 0.58 0.46 0.41 0.41 0.39 0.35 0.34 0.39 0.44 0.44 0.47 0.56 0.58 0.69 0.66 0.52 0.52 0.56 0.67 0.76 0.76 0.68 0.68 0.74 0.79 0.87 1.04 1.28 1.48
0.20 0.20 0.21 0.20 0.20 0.19 0.18 0.19 0.26 0.38 0.54 0.64 0.60 0.51 0.40 0.38 0.41 0.43 0.37 0.34 0.34 0.35 0.38 0.39 0.40 0.46 0.58 0.58 0.42 0.40 0.45 0.53 0.59 0.67 0.73 0.67 0.57 0.63 0.67 0.76 0.84 0.85 0.92
0.11 0.11 0.12 0.13 0.15 0.16 0.19 0.22 0.27 0.34 0.38 0.40 0.40 0.34 0.31 0.31 0.34 0.35 0.34 0.40 0.44 0.42 0.42 0.44 0.44 0.44 0.49 0.46 0.33 0.34 0.39 0.46 0.53 0.63 0.72 0.77 0.69 0.68 0.77 0.78 0.80 0.75 0.71
0.04 0.03 0.03 0.03 0.05 0.05 0.06 0.08 0.10 0.12 0.13 0.12 0.13 0.12 0.12 0.13 0.14 0.16 0.22 0.33 0.40 0.42 0.44 0.48 0.48 0.43 0.40 0.39 0.30 0.29 0.38 0.46 0.53 0.56 0.62 0.70 0.66 0.78 0.85 0.85 0.96 0.93 0.83
0.01 0.00 0.00 0.00 0.00 0.00 0.00 0.00 0.00 0.01 0.01 0.01 0.01 0.01 0.02 0.02 0.04 0.06 0.09 0.15 0.19 0.24 0.32 0.34 0.38 0.41 0.38 0.46 0.33 0.32 0.38 0.49 0.60 0.64 0.63 0.76 0.75 0.78 0.76 0.74 0.95 0.98 0.87
0.00 0.00 0.00 0.00 0.00 0.00 0.00 0.00 0.00 0.00 0.00 0.00 0.00 0.00 0.00 0.00 0.01 0.02 0.03 0.06 0.08 0.12 0.17 0.21 0.27 0.34 0.39 0.46 0.43 0.46 0.48 0.54 0.68 0.70 0.63 0.58 0.66 0.56 0.60 0.64 0.68 0.88 0.88
0.00 0.00 0.00 0.00 0.00 0.00 0.00 0.00 0.00 0.00 0.00 0.00 0.00 0.00 0.00 0.00 0.01 0.01 0.02 0.02 0.03 0.06 0.09 0.11 0.16 0.22 0.27 0.33 0.38 0.38 0.41 0.47 0.60 0.68 0.57 0.55 0.61 0.47 0.45 0.47 0.57 0.69 0.79
0.00 0.00 0.00 0.00 0.00 0.00 0.00 0.00 0.00 0.00 0.00 0.00 0.00 0.01 0.01 0.01 0.01 0.01 0.01 0.02 0.03 0.05 0.06 0.09 0.15 0.21 0.28 0.29 0.25 0.22 0.24 0.29 0.43 0.49 0.50 0.50 0.47 0.43 0.41 0.42 0.47 0.54 0.63
0.00 0.00 0.00 0.00 0.00 0.00 0.00 0.00 0.00 0.00 0.00 0.00 0.00 0.00 0.01 0.01 0.01 0.02 0.03 0.03 0.04 0.05 0.09 0.14 0.19 0.23 0.26 0.28 0.25 0.26 0.28 0.27 0.32 0.34 0.34 0.37 0.40 0.43 0.42 0.40 0.43 0.50 0.59
0.00 0.00 0.00 0.00 0.00 0.00 0.00 0.00 0.00 0.00 0.00 0.00 0.00 0.00 0.01 0.01 0.01 0.01 0.01 0.02 0.03 0.04 0.10 0.17 0.21 0.21 0.21 0.15 0.14 0.24 0.34 0.40 0.46 0.53 0.49 0.50 0.50 0.47 0.42 0.39 0.40 0.43 0.47
0.00 0.00 0.00 0.00 0.00 0.00 0.00 0.00 0.00 0.00 0.00 0.00 0.00 0.00 0.01 0.01 0.01 0.01 0.01 0.01 0.02 0.05 0.07 0.07 0.09 0.10 0.09 0.09 0.10 0.16 0.26 0.34 0.45 0.60 0.66 0.69 0.70 0.64 0.53 0.43 0.37 0.32 0.33

GEFSMW_prec_meanprecacc_126.txt.gz
Total_Precipitation_Accumulation
0.13 0.13 0.14 0.18 0.20 0.22 0.27 0.33 0.39 0.55 0.69 0.79 0.91 1.10 1.28 1.46 1.62 1.74 1.63 1.48 1.44 1.61 1.72 1.65 1.72 1.74 1.59 1.58 1.63 1.67 1.61 1.34 1.20 1.24 1.09 0.83 0.62 0.66 0.66 0.65 0.65 0.65 0.66
0.09 0.07 0.07 0.09 0.10 0.12 0.17 0.23 0.30 0.42 0.55 0.70 0.93 1.15 1.45 1.54 1.63 1.77 1.82 1.75 1.69 1.84 1.88 1.95 2.01 2.03 2.00 1.95 1.83 1.89 1.96 1.71 1.48 1.55 1.78 1.37 0.98 0.68 0.56 0.63 0.63 0.68 0.74
0.07 0.05 0.05 0.05 0.07 0.08 0.10 0.17 0.29 0.44 0.66 0.88 1.19 1.48 1.73 1.81 1.86 1.81 1.88 1.97 2.01 2.07 2.10 2.15 2.21 2.19 2.03 2.01 2.09 2.17 2.47 2.26 1.90 1.74 1.95 1.69 1.36 1.08 0.71 0.63 0.67 0.71 0.77
0.09 0.06 0.07 0.07 0.08 0.11 0.15 0.25 0.41 0.62 0.89 1.23 1.57 1.81 2.04 2.14 1.99 1.96 2.01 2.02 1.98 2.01 2.12 2.13 2.12 2.08 2.00 2.06 2.11 2.13 2.47 2.62 2.31 2.02 1.70 1.45 1.38 1.39 1.09 0.79 0.74 0.80 0.75
0.14 0.13 0.14 0.15 0.19 0.25 0.32 0.47 0.71 1.00 1.28 1.51 1.69 1.91 2.04 2.06 2.03 2.00 2.00 1.93 1.90 1.87 1.90 1.93 2.01 2.03 2.06 2.10 2.24 2.33 2.54 2.54 2.51 2.33 2.17 1.94 1.61 1.26 1.25 1.18 0.96 0.90 0.79
0.19 0.21 0.23 0.29 0.36 0.40 0.54 0.72 0.90 1.18 1.35 1.47 1.59 1.79 1.93 1.97 2.00 1.98 1.98 1.97 1.95 1.85 1.78 1.76 1.82 1.94 2.09 2.14 2.20 2.31 2.53 2.63 2.69 2.59 2.35 2.21 2.04 1.73 1.57 1.31 1.18 1.14 0.97
0.27 0.29 0.38 0.52 0.60 0.64 0.72 0.86 0.95 1.12 1.22 1.27 1.37 1.51 1.58 1.65 1.71 1.70 1.66 1.61 1.57 1.55 1.57 1.65 1.74 1.87 1.99 2.07 2.16 2.29 2.31 2.42 2.66 2.66 2.48 2.26 2.05 1.99 1.84 1.68 1.38 1.20 1.02
0.43 0.54 0.68 0.77 0.84 0.85 0.81 0.83 0.95 1.00 0.98 1.01 1.02 1.14 1.23 1.30 1.38 1.39 1.38 1.41 1.44 1.44 1.37 1.42 1.52 1.74 1.94 2.02 2.10 2.12 2.08 2.13 2.30 2.31 2.36 2.31 2.04 1.97 1.82 1.75 1.80 1.53 1.31
0.66 0.89 1.07 1.18 1.26 1.17 0.98 0.84 0.84 0.83 0.80 0.86 0.90 0.95 1.05 1.09 1.12 1.16 1.13 1.22 1.26 1.24 1.18 1.20 1.24 1.36 1.59 1.85 2.01 1.94 1.86 1.83 1.96 2.01 2.11 2.22 2.22 2.13 2.01 1.96 1.96 1.85 1.59
1.09 1.34 1.59 1.70 1.68 1.49 1.22 0.94 0.79 0.74 0.70 0.73 0.78 0.85 0.89 0.90 0.89 0.93 0.89 0.95 1.04 1.04 1.04 1.02 1.07 1.20 1.31 1.52 1.75 1.84 1.79 1.75 1.79 1.89 2.02 2.13 2.22 2.27 2.08 2.02 1.98 1.81 1.65
1.53 1.66 1.81 1.86 1.60 1.42 1.17 0.92 0.77 0.79 0.79 0.78 0.78 0.79 0.76 0.74 0.74 0.74 0.71 0.73 0.79 0.79 0.82 0.96 1.04 1.12 1.19 1.36 1.62 1.80 1.80 1.72 1.71 1.70 1.77 1.91 2.00 2.23 2.20 2.11 2.00 1.84 1.65
1.27 1.35 1.41 1.36 1.32 1.27 1.10 0.94 0.85 0.85 0.88 0.88 0.87 0.78 0.70 0.67 0.67 0.64 0.57 0.57 0.55 0.55 0.66 0.78 0.84 0.89 0.94 1.12 1.40 1.60 1.64 1.59 1.49 1.48 1.58 1.79 1.96 2.17 2.27 2.21 2.07 1.94 1.80
1.10 1.10 1.10 1.11 1.14 1.11 0.99 0.97 0.94 0.94 0.94 0.92 0.82 0.74 0.68 0.59 0.55 0.49 0.45 0.51 0.52 0.57 0.66 0.76 0.81 0.84 0.90 0.93 1.03 1.19 1.31 1.30 1.24 1.27 1.31 1.37 1.54 1.79 1.98 2.03 2.05 2.07 2.03
0.86 0.87 0.91 0.94 1.03 1.00 0.96 0.91 0.87 0.92 1.01 1.06 0.96 0.85 0.74 0.62 0.57 0.50 0.45 0.43 0.45 0.51 0.58 0.62 0.70 0.79 0.84 0.84 0.84 0.88 0.97 0.98 1.01 1.06 1.13 1.17 1.19 1.36 1.53 1.65 1.86 2.07 2.07
0.55 0.60 0.64 0.64 0.62 0.59 0.61 0.63 0.69 0.80 0.94 1.08 1.07 0.93 0.74 0.61 0.55 0.50 0.43 0.41 0.41 0.42 0.48 0.54 0.57 0.64 0.71 0.76 0.78 0.68 0.67 0.74 0.82 0.87 0.87 0.90 0.97 1.08 1.17 1.23 1.55 1.87 2.01
0.33 0.31 0.32 0.33 0.34 0.31 0.28 0.27 0.33 0.48 0.73 0.99 0.97 0.75 0.58 0.47 0.42 0.41 0.39 0.35 0.34 0.39 0.44 0.45 0.47 0.57 0.58 0.69 0.67 0.52 0.52 0.56 0.67 0.77 0.78 0.69 0.70 0.75 0.82 0.89 1.06 1.31 1.52
0.20 0.20 0.21 0.20 0.20 0.19 0.18 0.19 0.26 0.38 0.54 0.64 0.60 0.51 0.40 0.38 0.41 0.43 0.37 0.35 0.34 0.35 0.38 0.39 0.40 0.46 0.58 0.58 0.42 0.41 0.45 0.53 0.59 0.67 0.75 0.69 0.59 0.65 0.70 0.80 0.87 0.89 0.95
0.11 0.11 0.12 0.13 0.15 0.16 0.19 0.22 0.27 0.34 0.38 0.40 0.40 0.34 0.31 0.32 0.34 0.36 0.34 0.40 0.44 0.42 0.42 0.44 0.44 0.44 0.49 0.46 0.33 0.34 0.39 0.46 0.53 0.63 0.73 0.79 0.71 0.70 0.80 0.81 0.83 0.79 0.74
0.04 0.03 0.03 0.03 0.05 0.05 0.06 0.08 0.10 0.12 0.13 0.12 0.13 0.12 0.12 0.13 0.15 0.16 0.22 0.33 0.40 0.42 0.45 0.48 0.48 0.43 0.40 0.39 0.30 0.29 0.38 0.46 0.53 0.56 0.62 0.70 0.67 0.79 0.87 0.87 0.98 0.96 0.85
0.01 0.00 0.00 0.00 0.00 0.00 0.00 0.00 0.01 0.01 0.01 0.01 0.01 0.01 0.02 0.02 0.04 0.06 0.09 0.16 0.19 0.25 0.32 0.34 0.38 0.41 0.39 0.46 0.33 0.32 0.38 0.49 0.60 0.64 0.63 0.76 0.75 0.78 0.77 0.75 0.96 0.99 0.89
0.00 0.00 0.00 0.00 0.00 0.00 0.00 0.00 0.00 0.00 0.00 0.00 0.00 0.00 0.00 0.00 0.01 0.02 0.04 0.06 0.08 0.13 0.17 0.21 0.27 0.34 0.39 0.47 0.43 0.46 0.48 0.54 0.68 0.70 0.63 0.58 0.66 0.56 0.60 0.64 0.68 0.89 0.88
0.00 0.00 0.00 0.00 0.00 0.00 0.00 0.00 0.00 0.00 0.00 0.00 0.00 0.00 0.00 0.00 0.01 0.01 0.02 0.02 0.03 0.06 0.09 0.12 0.16 0.22 0.27 0.33 0.38 0.39 0.42 0.47 0.60 0.68 0.57 0.55 0.61 0.47 0.45 0.47 0.57 0.69 0.79
0.00 0.00 0.00 0.00 0.00 0.00 0.00 0.00 0.00 0.00 0.00 0.00 0.00 0.01 0.01 0.01 0.01 0.02 0.02 0.02 0.03 0.05 0.07 0.10 0.16 0.22 0.28 0.30 0.25 0.23 0.24 0.29 0.43 0.49 0.50 0.50 0.47 0.43 0.41 0.42 0.47 0.54 0.63
0.00 0.00 0.00 0.00 0.00 0.00 0.00 0.00 0.00 0.00 0.00 0.00 0.00 0.00 0.01 0.01 0.01 0.02 0.03 0.04 0.04 0.06 0.09 0.15 0.19 0.23 0.26 0.28 0.25 0.27 0.28 0.27 0.32 0.34 0.34 0.37 0.40 0.43 0.42 0.40 0.43 0.50 0.59
0.00 0.00 0.00 0.00 0.00 0.00 0.00 0.00 0.00 0.00 0.00 0.00 0.00 0.00 0.01 0.01 0.01 0.01 0.01 0.02 0.03 0.05 0.11 0.18 0.22 0.22 0.21 0.16 0.15 0.25 0.35 0.41 0.47 0.53 0.49 0.50 0.50 0.47 0.42 0.39 0.40 0.43 0.47
0.00 0.00 0.00 0.00 0.00 0.00 0.00 0.00 0.00 0.00 0.00 0.00 0.00 0.00 0.01 0.01 0.01 0.01 0.01 0.01 0.02 0.06 0.08 0.08 0.10 0.11 0.10 0.10 0.11 0.17 0.27 0.35 0.46 0.61 0.66 0.69 0.70 0.64 0.53 0.43 0.37 0.32 0.33

GEFSMW_prec_meanprecacc_132.txt.gz
Total_Precipitation_Accumulation
0.14 0.15 0.16 0.18 0.20 0.22 0.27 0.33 0.39 0.55 0.69 0.79 0.91 1.10 1.28 1.46 1.62 1.74 1.63 1.49 1.44 1.61 1.72 1.65 1.73 1.76 1.62 1.61 1.65 1.71 1.65 1.39 1.24 1.29 1.14 0.87 0.65 0.71 0.71 0.70 0.73 0.77 0.85
0.10 0.08 0.07 0.09 0.11 0.13 0.17 0.23 0.30 0.42 0.55 0.70 0.93 1.15 1.45 1.54 1.63 1.77 1.82 1.76 1.69 1.84 1.88 1.95 2.02 2.05 2.03 1.99 1.87 1.95 2.02 1.77 1.53 1.60 1.84 1.43 1.03 0.72 0.60 0.68 0.70 0.78 0.95
0.08 0.06 0.05 0.06 0.09 0.10 0.11 0.17 0.29 0.44 0.66 0.88 1.19 1.49 1.73 1.81 1.86 1.81 1.88 1.97 2.02 2.08 2.10 2.16 2.21 2.20 2.05 2.04 2.13 2.23 2.53 2.32 1.97 1.79 2.00 1.76 1.44 1.17 0.76 0.68 0.73 0.81 0.93
0.09 0.07 0.07 0.07 0.09 0.11 0.15 0.25 0.41 0.62 0.89 1.23 1.57 1.81 2.04 2.14 1.99 1.97 2.01 2.03 1.98 2.01 2.12 2.13 2.13 2.09 2.02 2.08 2.14 2.18 2.54 2.70 2.38 2.08 1.75 1.52 1.47 1.49 1.18 0.85 0.79 0.85 0.83
0.15 0.13 0.14 0.15 0.19 0.25 0.32 0.48 0.71 1.01 1.28 1.51 1.69 1.91 2.04 2.06 2.04 2.00 2.00 1.93 1.91 1.87 1.91 1.93 2.01 2.04 2.07 2.12 2.27 2.37 2.60 2.62 2.59 2.41 2.23 2.00 1.69 1.34 1.34 1.28 1.04 0.97 0.85
0.19 0.21 0.23 0.29 0.36 0.40 0.54 0.72 0.90 1.18 1.35 1.47 1.59 1.79 1.93 1.97 2.00 1.98 1.99 1.98 1.95 1.85 1.79 1.76 1.82 1.94 2.11 2.16 2.24 2.36 2.60 2.70 2.76 2.68 2.42 2.29 2.10 1.79 1.65 1.41 1.28 1.24 1.04
0.27 0.29 0.38 0.52 0.60 0.64 0.72 0.86 0.95 1.12 1.22 1.27 1.37 1.51 1.58 1.65 1.71 1.70 1.66 1.61 1.57 1.56 1.58 1.66 1.75 1.88 2.01 2.09 2.20 2.33 2.38 2.48 2.72 2.72 2.54 2.33 2.10 2.05 1.92 1.79 1.48 1.30 1.10
0.43 0.54 0.68 0.77 0.84 0.85 0.81 0.83 0.95 1.00 0.98 1.01 1.02 1.14 1.23 1.30 1.38 1.39 1.38 1.41 1.44 1.45 1.38 1.42 1.53 1.76 1.96 2.04 2.13 2.15 2.12 2.16 2.35 2.35 2.41 2.36 2.07 2.01 1.89 1.84 1.91 1.63 1.40
0.66 0.89 1.07 1.18 1.26 1.17 0.98 0.84 0.84 0.83 0.80 0.86 0.90 0.95 1.05 1.09 1.12 1.16 1.13 1.22 1.26 1.24 1.19 1.21 1.25 1.37 1.61 1.87 2.03 1.98 1.90 1.86 2.01 2.06 2.16 2.26 2.26 2.17 2.06 2.02 2.03 1.94 1.69
1.09 1.34 1.59 1.70 1.68 1.49 1.22 0.94 0.79 0.74 0.70 0.73 0.78 0.85 0.89 0.90 0.89 0.93 0.89 0.96 1.04 1.04 1.04 1.03 1.08 1.22 1.32 1.53 1.77 1.87 1.82 1.79 1.84 1.93 2.07 2.19 2.28 2.33 2.13 2.09 2.04 1.88 1.74
1.53 1.66 1.81 1.86 1.60 1.42 1.17 0.92 0.77 0.79 0.79 0.78 0.78 0.79 0.76 0.75 0.74 0.74 0.71 0.73 0.79 0.80 0.83 0.99 1.04 1.12 1.21 1.38 1.64 1.82 1.83 1.76 1.76 1.74 1.82 1.98 2.07 2.29 2.27 2.18 2.06 1.91 1.72
1.27 1.35 1.41 1.36 1.32 1.27 1.10 0.94 0.85 0.85 0.88 0.88 0.87 0.78 0.70 0.67 0.67 0.64 0.57 0.57 0.56 0.55 0.67 0.81 0.85 0.89 0.94 1.13 1.43 1.62 1.66 1.63 1.54 1.52 1.62 1.84 2.01 2.22 2.33 2.29 2.14 2.02 1.87
1.10 1.10 1.10 1.11 1.14 1.11 0.99 0.97 0.94 0.94 0.94 0.92 0.82 0.74 0.68 0.59 0.55 0.49 0.45 0.51 0.52 0.58 0.67 0.77 0.82 0.85 0.91 0.94 1.05 1.21 1.32 1.31 1.26 1.29 1.34 1.40 1.58 1.86 2.05 2.10 2.11 2.13 2.09
0.86 0.87 0.91 0.94 1.03 1.00 0.96 0.91 0.87 0.92 1.01 1.06 0.96 0.85 0.74 0.62 0.57 0.50 0.45 0.44 0.46 0.53 0.59 0.65 0.72 0.80 0.85 0.85 0.86 0.89 0.97 0.99 1.03 1.08 1.15 1.20 1.23 1.42 1.60 1.71 1.93 2.14 2.14
0.55 0.60 0.64 0.64 0.62 0.59 0.61 0.63 0.69 0.80 0.94 1.08 1.07 0.93 0.74 0.61 0.55 0.50 0.43 0.41 0.41 0.43 0.49 0.56 0.60 0.65 0.72 0.77 0.79 0.69 0.68 0.75 0.84 0.89 0.89 0.91 0.99 1.10 1.19 1.26 1.60 1.93 2.08
0.33 0.31 0.32 0.33 0.34 0.31 0.28 0.27 0.33 0.48 0.73 0.99 0.97 0.75 0.58 0.47 0.42 0.41 0.40 0.35 0.35 0.40 0.45 0.46 0.49 0.60 0.61 0.70 0.67 0.53 0.53 0.58 0.69 0.79 0.79 0.70 0.70 0.76 0.82 0.90 1.07 1.34 1.56
0.20 0.20 0.21 0.20 0.20 0.19 0.18 0.19 0.26 0.38 0.54 0.64 0.60 0.51 0.40 0.38 0.41 0.43 0.37 0.35 0.34 0.36 0.39 0.40 0.42 0.48 0.60 0.60 0.43 0.41 0.46 0.54 0.60 0.68 0.76 0.69 0.60 0.67 0.72 0.81 0.88 0.90 0.96
0.11 0.11 0.12 0.13 0.15 0.16 0.19 0.22 0.27 0.34 0.38 0.40 0.40 0.34 0.31 0.32 0.34 0.36 0.34 0.40 0.44 0.42 0.43 0.46 0.47 0.47 0.52 0.48 0.34 0.35 0.40 0.46 0.53 0.63 0.73 0.79 0.71 0.71 0.81 0.82 0.85 0.81 0.76
0.04 0.03 0.03 0.03 0.05 0.05 0.06 0.08 0.10 0.12 0.13 0.12 0.13 0.12 0.12 0.13 0.15 0.16 0.22 0.33 0.40 0.42 0.45 0.49 0.50 0.47 0.44 0.43 0.32 0.31 0.39 0.46 0.53 0.56 0.62 0.70 0.68 0.81 0.89 0.88 1.00 0.99 0.87
0.01 0.00 0.00 0.00 0.00 0.00 0.00 0.00 0.01 0.01 0.01 0.01 0.01 0.01 0.02 0.02 0.04 0.06 0.09 0.16 0.20 0.25 0.33 0.35 0.39 0.43 0.42 0.51 0.37 0.35 0.39 0.50 0.60 0.64 0.63 0.76 0.76 0.81 0.80 0.78 0.99 1.01 0.92
0.00 0.00 0.00 0.00 0.00 0.00 0.00 0.00 0.00 0.00 0.00 0.00 0.00 0.00 0.00 0.00 0.01 0.02 0.04 0.07 0.09 0.13 0.17 0.22 0.28 0.36 0.42 0.51 0.48 0.50 0.50 0.55 0.69 0.71 0.65 0.59 0.67 0.57 0.63 0.67 0.72 0.92 0.91
0.00 0.00 0.00 0.00 0.00 0.00 0.00 0.00 0.00 0.00 0.00 0.00 0.00 0.00 0.00 0.00 0.01 0.01 0.02 0.02 0.04 0.07 0.10 0.12 0.17 0.23 0.29 0.37 0.43 0.43 0.45 0.50 0.62 0.71 0.60 0.57 0.63 0.48 0.46 0.49 0.59 0.72 0.81
0.00 0.00 0.00 0.00 0.00 0.00 0.00 0.00 0.00 0.00 0.00 0.00 0.00 0.01 0.01 0.01 0.01 0.02 0.02 0.02 0.04 0.06 0.08 0.11 0.17 0.23 0.30 0.33 0.29 0.28 0.29 0.34 0.48 0.52 0.54 0.53 0.50 0.45 0.42 0.42 0.49 0.55 0.64
0.00 0.00 0.00 0.00 0.00 0.00 0.00 0.00 0.00 0.00 0.00 0.00 0.00 0.00 0.01 0.01 0.01 0.02 0.03 0.04 0.04 0.07 0.10 0.16 0.21 0.25 0.29 0.32 0.31 0.33 0.35 0.33 0.38 0.39 0.39 0.41 0.43 0.46 0.44 0.41 0.44 0.51 0.60
0.00 0.00 0.00 0.00 0.00 0.00 0.00 0.00 0.00 0.00 0.00 0.00 0.00 0.00 0.01 0.01 0.01 0.01 0.01 0.02 0.03 0.05 0.12 0.19 0.24 0.25 0.24 0.20 0.22 0.34 0.43 0.48 0.54 0.60 0.55 0.55 0.55 0.50 0.44 0.41 0.41 0.44 0.48
0.00 0.00 0.00 0.00 0.00 0.00 0.00 0.00 0.00 0.00 0.00 0.00 0.00 0.00 0.01 0.01 0.02 0.01 0.01 0.01 0.02 0.06 0.08 0.09 0.11 0.13 0.13 0.13 0.16 0.24 0.34 0.42 0.52 0.68 0.73 0.76 0.77 0.69 0.58 0.47 0.39 0.34 0.34

GEFSMW_prec_meanprecacc_138.txt.gz
Total_Precipitation_Accumulation
0.15 0.16 0.17 0.19 0.20 0.22 0.28 0.33 0.39 0.55 0.69 0.79 0.91 1.10 1.28 1.46 1.62 1.74 1.63 1.49 1.44 1.61 1.72 1.65 1.73 1.77 1.62 1.61 1.65 1.71 1.65 1.39 1.24 1.29 1.14 0.87 0.66 0.72 0.72 0.72 0.75 0.82 0.93
0.11 0.09 0.08 0.10 0.12 0.13 0.17 0.23 0.30 0.42 0.55 0.70 0.93 1.15 1.45 1.54 1.63 1.77 1.82 1.76 1.69 1.84 1.88 1.95 2.02 2.05 2.03 1.99 1.88 1.95 2.03 1.77 1.53 1.61 1.86 1.44 1.04 0.73 0.61 0.70 0.72 0.83 1.06
0.09 0.06 0.05 0.06 0.09 0.10 0.11 0.18 0.29 0.44 0.66 0.88 1.19 1.49 1.73 1.81 1.86 1.81 1.88 1.97 2.02 2.08 2.10 2.16 2.21 2.20 2.05 2.04 2.13 2.23 2.53 2.32 1.98 1.80 2.02 1.78 1.44 1.17 0.77 0.70 0.77 0.86 1.03
0.09 0.07 0.07 0.08 0.09 0.11 0.16 0.25 0.41 0.62 0.89 1.23 1.58 1.81 2.04 2.14 1.99 1.97 2.01 2.03 1.98 2.01 2.12 2.13 2.13 2.09 2.02 2.08 2.15 2.18 2.54 2.70 2.39 2.09 1.75 1.53 1.48 1.50 1.19 0.87 0.82 0.91 0.91
0.15 0.13 0.14 0.15 0.19 0.25 0.32 0.48 0.71 1.01 1.28 1.51 1.69 1.91 2.04 2.06 2.04 2.00 2.00 1.93 1.91 1.87 1.91 1.93 2.01 2.04 2.07 2.12 2.27 2.37 2.60 2.62 2.60 2.42 2.23 2.01 1.70 1.35 1.35 1.29 1.06 1.01 0.91
0.20 0.21 0.23 0.29 0.37 0.41 0.54 0.72 0.91 1.18 1.35 1.47 1.60 1.79 1.93 1.97 2.00 1.98 1.99 1.98 1.95 1.85 1.79 1.76 1.82 1.94 2.11 2.16 2.24 2.36 2.60 2.70 2.77 2.68 2.43 2.31 2.12 1.80 1.65 1.41 1.29 1.26 1.08
0.27 0.29 0.38 0.52 0.61 0.65 0.72 0.87 0.95 1.12 1.22 1.27 1.37 1.51 1.58 1.65 1.71 1.70 1.66 1.61 1.57 1.56 1.58 1.66 1.75 1.89 2.01 2.09 2.20 2.33 2.38 2.48 2.72 2.72 2.55 2.34 2.11 2.05 1.93 1.80 1.48 1.31 1.12
0.43 0.54 0.68 0.77 0.85 0.85 0.81 0.83 0.95 1.00 0.98 1.01 1.02 1.14 1.23 1.30 1.38 1.39 1.38 1.41 1.44 1.45 1.39 1.43 1.53 1.76 1.97 2.05 2.14 2.15 2.12 2.17 2.35 2.35 2.41 2.37 2.08 2.02 1.90 1.85 1.92 1.64 1.42
0.67 0.89 1.07 1.18 1.26 1.17 0.98 0.84 0.84 0.83 0.81 0.86 0.90 0.95 1.05 1.09 1.12 1.16 1.13 1.22 1.26 1.24 1.19 1.21 1.25 1.38 1.62 1.88 2.04 1.98 1.90 1.86 2.01 2.07 2.16 2.27 2.28 2.19 2.07 2.03 2.04 1.95 1.69
1.10 1.35 1.59 1.70 1.68 1.49 1.22 0.94 0.79 0.74 0.70 0.73 0.79 0.85 0.89 0.90 0.89 0.93 0.89 0.96 1.04 1.04 1.05 1.04 1.09 1.22 1.33 1.54 1.78 1.88 1.82 1.79 1.84 1.94 2.07 2.20 2.29 2.34 2.15 2.10 2.05 1.88 1.75
1.53 1.67 1.81 1.86 1.60 1.42 1.17 0.92 0.77 0.79 0.79 0.78 0.78 0.79 0.76 0.75 0.74 0.74 0.72 0.73 0.79 0.80 0.83 1.00 1.06 1.14 1.22 1.39 1.65 1.83 1.83 1.76 1.76 1.75 1.83 1.99 2.07 2.30 2.28 2.19 2.08 1.93 1.73
1.27 1.35 1.41 1.37 1.32 1.28 1.10 0.94 0.85 0.85 0.89 0.88 0.87 0.78 0.70 0.67 0.67 0.64 0.57 0.58 0.56 0.55 0.68 0.81 0.86 0.90 0.96 1.14 1.44 1.63 1.67 1.63 1.54 1.52 1.63 1.84 2.01 2.23 2.34 2.31 2.17 2.05 1.89
1.10 1.10 1.10 1.11 1.14 1.11 0.99 0.97 0.95 0.94 0.94 0.92 0.82 0.74 0.68 0.59 0.55 0.49 0.45 0.51 0.53 0.58 0.68 0.78 0.84 0.86 0.92 0.96 1.07 1.23 1.34 1.32 1.26 1.29 1.35 1.41 1.58 1.86 2.06 2.12 2.14 2.16 2.12
0.86 0.87 0.91 0.94 1.03 1.00 0.96 0.91 0.87 0.92 1.01 1.06 0.96 0.85 0.74 0.62 0.57 0.50 0.45 0.44 0.46 0.53 0.60 0.65 0.73 0.81 0.88 0.89 0.91 0.94 1.00 1.00 1.03 1.09 1.16 1.20 1.23 1.43 1.61 1.74 1.95 2.17 2.18
0.55 0.60 0.64 0.64 0.62 0.59 0.61 0.63 0.69 0.80 0.94 1.08 1.07 0.93 0.74 0.61 0.55 0.50 0.43 0.41 0.41 0.43 0.49 0.56 0.60 0.67 0.76 0.85 0.87 0.75 0.71 0.77 0.86 0.91 0.90 0.92 0.99 1.11 1.20 1.28 1.62 1.96 2.13
0.33 0.31 0.32 0.33 0.34 0.31 0.28 0.27 0.33 0.49 0.73 0.99 0.97 0.75 0.58 0.47 0.42 0.41 0.40 0.35 0.35 0.40 0.45 0.46 0.49 0.61 0.66 0.79 0.76 0.59 0.58 0.61 0.71 0.81 0.80 0.71 0.71 0.77 0.83 0.90 1.08 1.35 1.59
0.20 0.20 0.21 0.20 0.20 0.19 0.18 0.19 0.26 0.38 0.54 0.64 0.60 0.51 0.40 0.38 0.41 0.43 0.37 0.35 0.34 0.36 0.39 0.40 0.42 0.48 0.62 0.65 0.51 0.48 0.51 0.58 0.63 0.69 0.76 0.69 0.60 0.67 0.72 0.81 0.89 0.91 0.98
0.11 0.11 0.12 0.13 0.15 0.16 0.19 0.23 0.27 0.34 0.38 0.40 0.40 0.34 0.31 0.32 0.34 0.36 0.34 0.40 0.44 0.42 0.43 0.46 0.47 0.48 0.53 0.51 0.40 0.43 0.45 0.50 0.56 0.64 0.74 0.79 0.72 0.71 0.82 0.82 0.85 0.82 0.77
0.04 0.03 0.03 0.03 0.05 0.05 0.06 0.08 0.10 0.12 0.13 0.12 0.13 0.12 0.12 0.13 0.15 0.16 0.22 0.33 0.40 0.42 0.45 0.49 0.50 0.47 0.45 0.45 0.37 0.38 0.46 0.51 0.55 0.57 0.63 0.71 0.69 0.82 0.90 0.89 1.00 0.99 0.88
0.01 0.00 0.00 0.00 0.00 0.00 0.00 0.00 0.01 0.01 0.01 0.01 0.01 0.01 0.02 0.02 0.04 0.06 0.09 0.16 0.20 0.25 0.33 0.35 0.39 0.43 0.43 0.52 0.40 0.41 0.46 0.55 0.64 0.66 0.64 0.77 0.77 0.82 0.81 0.79 1.01 1.03 0.93
0.00 0.00 0.00 0.00 0.00 0.00 0.00 0.00 0.00 0.00 0.00 0.00 0.00 0.00 0.00 0.00 0.01 0.02 0.04 0.07 0.09 0.13 0.17 0.22 0.28 0.36 0.42 0.52 0.50 0.54 0.56 0.62 0.74 0.74 0.66 0.60 0.69 0.59 0.64 0.69 0.73 0.94 0.94
0.00 0.00 0.00 0.00 0.00 0.00 0.00 0.00 0.00 0.00 0.00 0.00 0.00 0.00 0.00 0.00 0.01 0.01 0.02 0.02 0.04 0.07 0.10 0.12 0.17 0.24 0.30 0.38 0.44 0.46 0.51 0.59 0.69 0.74 0.62 0.59 0.65 0.50 0.48 0.51 0.61 0.74 0.86
0.00 0.00 0.00 0.00 0.00 0.00 0.00 0.00 0.00 0.00 0.00 0.00 0.00 0.01 0.01 0.01 0.01 0.02 0.02 0.02 0.04 0.06 0.08 0.11 0.18 0.24 0.31 0.34 0.31 0.30 0.33 0.41 0.53 0.55 0.57 0.56 0.52 0.48 0.44 0.45 0.51 0.58 0.68
0.00 0.00 0.00 0.00 0.00 0.00 0.00 0.00 0.00 0.00 0.00 0.00 0.00 0.00 0.01 0.01 0.01 0.02 0.03 0.04 0.05 0.07 0.10 0.16 0.22 0.26 0.30 0.33 0.32 0.34 0.37 0.39 0.42 0.42 0.41 0.43 0.45 0.49 0.47 0.44 0.47 0.55 0.65
0.00 0.00 0.00 0.00 0.00 0.00 0.00 0.00 0.00 0.00 0.00 0.00 0.00 0.00 0.01 0.01 0.01 0.01 0.01 0.03 0.04 0.06 0.12 0.19 0.25 0.25 0.25 0.21 0.23 0.34 0.45 0.52 0.58 0.63 0.57 0.57 0.57 0.53 0.48 0.45 0.45 0.49 0.54
0.00 0.00 0.00 0.00 0.00 0.00 0.00 0.00 0.00 0.00 0.00 0.00 0.00 0.00 0.01 0.01 0.02 0.02 0.01 0.01 0.03 0.06 0.08 0.09 0.12 0.13 0.13 0.13 0.17 0.24 0.35 0.44 0.56 0.72 0.75 0.78 0.79 0.73 0.62 0.52 0.44 0.40 0.41

GEFSMW_prec_meanprecacc_144.txt.gz
Total_Precipitation_Accumulation
0.15 0.16 0.17 0.19 0.21 0.22 0.28 0.33 0.39 0.55 0.69 0.79 0.91 1.10 1.28 1.46 1.62 1.74 1.63 1.49 1.44 1.61 1.72 1.65 1.73 1.77 1.62 1.61 1.65 1.71 1.65 1.39 1.24 1.29 1.14 0.87 0.66 0.72 0.72 0.72 0.75 0.82 0.94
0.11 0.09 0.08 0.10 0.12 0.14 0.17 0.23 0.30 0.42 0.55 0.70 0.93 1.15 1.45 1.54 1.63 1.77 1.82 1.76 1.69 1.84 1.88 1.95 2.02 2.05 2.03 1.99 1.88 1.95 2.03 1.77 1.53 1.61 1.86 1.44 1.04 0.73 0.61 0.70 0.73 0.83 1.07
0.09 0.06 0.06 0.06 0.09 0.10 0.11 0.18 0.29 0.44 0.66 0.88 1.19 1.49 1.73 1.81 1.86 1.81 1.88 1.97 2.02 2.08 2.10 2.16 2.21 2.20 2.05 2.04 2.13 2.23 2.53 2.32 1.98 1.80 2.02 1.78 1.45 1.17 0.77 0.71 0.77 0.87 1.05
0.10 0.07 0.07 0.08 0.09 0.12 0.16 0.26 0.42 0.62 0.90 1.23 1.58 1.81 2.04 2.14 1.99 1.97 2.01 2.03 1.98 2.01 2.12 2.13 2.13 2.09 2.02 2.08 2.15 2.18 2.54 2.70 2.39 2.09 1.75 1.53 1.48 1.50 1.19 0.87 0.83 0.91 0.93
0.15 0.13 0.14 0.15 0.19 0.25 0.32 0.48 0.72 1.01 1.29 1.52 1.69 1.91 2.04 2.06 2.04 2.00 2.00 1.93 1.91 1.87 1.91 1.93 2.01 2.04 2.07 2.12 2.27 2.37 2.60 2.62 2.60 2.42 2.24 2.01 1.70 1.35 1.35 1.29 1.07 1.01 0.93
0.20 0.21 0.23 0.29 0.37 0.42 0.55 0.73 0.91 1.19 1.36 1.47 1.60 1.79 1.93 1.97 2.00 1.98 1.99 1.98 1.95 1.85 1.79 1.76 1.82 1.94 2.11 2.16 2.24 2.37 2.60 2.70 2.77 2.68 2.43 2.31 2.12 1.80 1.66 1.41 1.29 1.26 1.09
0.27 0.29 0.38 0.53 0.62 0.65 0.73 0.88 0.96 1.12 1.22 1.27 1.37 1.52 1.58 1.65 1.71 1.70 1.66 1.61 1.57 1.56 1.58 1.66 1.75 1.89 2.01 2.09 2.20 2.33 2.38 2.49 2.72 2.72 2.55 2.34 2.11 2.05 1.93 1.80 1.48 1.31 1.13
0.43 0.54 0.68 0.77 0.85 0.85 0.82 0.83 0.96 1.00 0.98 1.01 1.03 1.15 1.24 1.30 1.38 1.39 1.38 1.41 1.44 1.45 1.39 1.43 1.53 1.76 1.97 2.05 2.14 2.15 2.12 2.17 2.35 2.35 2.41 2.37 2.08 2.02 1.90 1.86 1.92 1.64 1.43
0.67 0.89 1.07 1.18 1.26 1.17 0.98 0.84 0.84 0.83 0.81 0.86 0.91 0.96 1.05 1.09 1.12 1.16 1.13 1.22 1.26 1.24 1.19 1.21 1.25 1.38 1.62 1.88 2.04 1.98 1.90 1.87 2.01 2.07 2.16 2.27 2.28 2.19 2.08 2.03 2.05 1.95 1.70
1.10 1.35 1.59 1.70 1.68 1.49 1.22 0.94 0.79 0.75 0.70 0.73 0.79 0.86 0.90 0.91 0.89 0.93 0.89 0.96 1.04 1.04 1.05 1.04 1.09 1.22 1.33 1.54 1.78 1.88 1.83 1.79 1.85 1.95 2.08 2.20 2.29 2.34 2.15 2.10 2.06 1.89 1.76
1.53 1.67 1.81 1.86 1.60 1.42 1.17 0.92 0.77 0.79 0.79 0.78 0.78 0.79 0.77 0.75 0.74 0.74 0.72 0.73 0.79 0.80 0.83 1.00 1.06 1.14 1.22 1.39 1.65 1.83 1.84 1.76 1.77 1.76 1.84 1.99 2.07 2.30 2.28 2.19 2.08 1.93 1.74
1.27 1.35 1.41 1.37 1.32 1.28 1.10 0.94 0.85 0.85 0.89 0.88 0.87 0.79 0.70 0.67 0.67 0.64 0.57 0.58 0.56 0.55 0.68 0.81 0.86 0.90 0.96 1.14 1.44 1.63 1.67 1.64 1.55 1.54 1.64 1.85 2.02 2.23 2.34 2.31 2.17 2.05 1.90
1.10 1.10 1.10 1.11 1.14 1.11 0.99 0.97 0.95 0.94 0.94 0.92 0.82 0.74 0.68 0.59 0.55 0.49 0.45 0.51 0.53 0.58 0.68 0.78 0.84 0.86 0.92 0.96 1.07 1.23 1.35 1.34 1.28 1.31 1.36 1.42 1.59 1.86 2.06 2.12 2.14 2.17 2.13
0.86 0.87 0.91 0.94 1.03 1.00 0.96 0.91 0.87 0.92 1.01 1.06 0.96 0.85 0.74 0.62 0.57 0.50 0.45 0.44 0.46 0.53 0.60 0.65 0.73 0.81 0.88 0.89 0.91 0.94 1.01 1.02 1.06 1.12 1.18 1.21 1.24 1.43 1.62 1.74 1.95 2.18 2.19
0.55 0.60 0.64 0.64 0.62 0.59 0.61 0.63 0.69 0.80 0.95 1.08 1.07 0.93 0.74 0.61 0.55 0.50 0.43 0.41 0.41 0.43 0.49 0.56 0.60 0.67 0.76 0.85 0.88 0.76 0.73 0.80 0.89 0.93 0.92 0.93 1.00 1.12 1.21 1.28 1.63 1.97 2.14
0.33 0.31 0.32 0.33 0.34 0.31 0.28 0.27 0.33 0.49 0.73 0.99 0.97 0.75 0.58 0.47 0.42 0.41 0.40 0.35 0.35 0.40 0.45 0.46 0.49 0.61 0.66 0.79 0.77 0.60 0.59 0.63 0.73 0.82 0.82 0.72 0.72 0.77 0.84 0.91 1.09 1.36 1.59
0.20 0.20 0.21 0.20 0.20 0.19 0.18 0.19 0.26 0.38 0.54 0.64 0.60 0.51 0.40 0.38 0.41 0.43 0.37 0.35 0.34 0.36 0.39 0.40 0.42 0.48 0.62 0.66 0.52 0.49 0.52 0.60 0.65 0.71 0.77 0.70 0.60 0.68 0.73 0.82 0.89 0.91 0.99
0.11 0.11 0.12 0.13 0.15 0.16 0.19 0.23 0.27 0.34 0.38 0.40 0.40 0.34 0.31 0.32 0.34 0.36 0.34 0.40 0.44 0.42 0.43 0.46 0.47 0.48 0.53 0.51 0.41 0.43 0.46 0.52 0.58 0.66 0.75 0.80 0.72 0.71 0.82 0.83 0.86 0.82 0.77
0.04 0.03 0.03 0.03 0.05 0.05 0.06 0.08 0.10 0.12 0.13 0.12 0.13 0.12 0.12 0.13 0.15 0.16 0.22 0.33 0.40 0.42 0.45 0.49 0.50 0.47 0.45 0.45 0.37 0.39 0.47 0.52 0.57 0.59 0.64 0.71 0.69 0.83 0.91 0.90 1.01 1.00 0.89
0.01 0.00 0.00 0.00 0.00 0.00 0.00 0.00 0.01 0.01 0.01 0.01 0.01 0.01 0.02 0.02 0.04 0.06 0.09 0.16 0.20 0.25 0.33 0.35 0.39 0.43 0.43 0.52 0.41 0.41 0.47 0.56 0.65 0.67 0.65 0.78 0.78 0.83 0.82 0.80 1.01 1.03 0.93
0.00 0.00 0.00 0.00 0.00 0.00 0.00 0.00 0.00 0.00 0.00 0.00 0.00 0.00 0.00 0.00 0.01 0.02 0.04 0.07 0.09 0.13 0.17 0.22 0.28 0.36 0.43 0.52 0.50 0.54 0.57 0.64 0.76 0.75 0.67 0.61 0.70 0.59 0.65 0.69 0.74 0.95 0.95
0.00 0.00 0.00 0.00 0.00 0.00 0.00 0.00 0.00 0.00 0.00 0.00 0.00 0.00 0.00 0.00 0.01 0.01 0.02 0.02 0.04 0.07 0.10 0.12 0.17 0.24 0.30 0.38 0.45 0.46 0.52 0.60 0.70 0.75 0.63 0.60 0.66 0.51 0.49 0.52 0.62 0.75 0.86
0.00 0.00 0.00 0.00 0.00 0.00 0.00 0.00 0.00 0.00 0.00 0.00 0.00 0.01 0.01 0.01 0.01 0.02 0.02 0.02 0.04 0.06 0.08 0.11 0.18 0.24 0.31 0.35 0.32 0.31 0.34 0.42 0.53 0.56 0.58 0.57 0.53 0.48 0.45 0.45 0.52 0.59 0.69
0.00 0.00 0.00 0.00 0.00 0.00 0.00 0.00 0.00 0.00 0.00 0.00 0.00 0.00 0.01 0.01 0.01 0.02 0.03 0.04 0.05 0.07 0.10 0.16 0.22 0.27 0.31 0.34 0.33 0.35 0.38 0.39 0.42 0.42 0.42 0.44 0.46 0.50 0.48 0.44 0.48 0.56 0.66
0.00 0.00 0.00 0.00 0.00 0.00 0.00 0.00 0.00 0.00 0.00 0.00 0.00 0.00 0.01 0.01 0.01 0.01 0.01 0.03 0.04 0.06 0.12 0.20 0.25 0.26 0.26 0.22 0.23 0.35 0.46 0.53 0.58 0.64 0.58 0.58 0.58 0.54 0.49 0.45 0.46 0.50 0.54
0.00 0.00 0.00 0.00 0.00 0.00 0.00 0.00 0.00 0.00 0.00 0.00 0.00 0.00 0.01 0.01 0.02 0.02 0.01 0.01 0.03 0.06 0.08 0.09 0.12 0.14 0.14 0.14 0.17 0.25 0.36 0.45 0.57 0.73 0.76 0.79 0.80 0.74 0.63 0.53 0.45 0.41 0.42

GEFSMW_prec_meanprecacc_150.txt.gz
Total_Precipitation_Accumulation
0.16 0.16 0.17 0.19 0.21 0.22 0.28 0.33 0.39 0.55 0.69 0.79 0.91 1.10 1.28 1.46 1.62 1.74 1.63 1.49 1.45 1.61 1.72 1.65 1.73 1.77 1.62 1.61 1.66 1.71 1.65 1.39 1.25 1.30 1.16 0.89 0.67 0.73 0.73 0.72 0.76 0.83 0.95
0.11 0.09 0.08 0.10 0.12 0.14 0.17 0.23 0.30 0.42 0.55 0.70 0.93 1.16 1.45 1.54 1.63 1.77 1.82 1.76 1.69 1.84 1.88 1.95 2.02 2.05 2.03 1.99 1.88 1.95 2.03 1.77 1.54 1.62 1.86 1.45 1.05 0.74 0.62 0.71 0.74 0.84 1.08
0.09 0.06 0.06 0.06 0.09 0.10 0.11 0.18 0.29 0.44 0.66 0.88 1.19 1.49 1.73 1.81 1.86 1.81 1.88 1.97 2.02 2.08 2.10 2.16 2.22 2.21 2.06 2.04 2.13 2.23 2.53 2.32 1.98 1.80 2.02 1.78 1.45 1.18 0.78 0.72 0.78 0.87 1.05
0.10 0.07 0.07 0.08 0.09 0.12 0.16 0.26 0.42 0.62 0.90 1.23 1.58 1.81 2.04 2.14 1.99 1.97 2.01 2.03 1.98 2.01 2.12 2.13 2.13 2.09 2.02 2.08 2.15 2.18 2.54 2.71 2.40 2.09 1.76 1.53 1.49 1.51 1.21 0.89 0.83 0.92 0.94
0.15 0.13 0.14 0.15 0.19 0.25 0.32 0.48 0.72 1.01 1.29 1.52 1.69 1.91 2.04 2.06 2.04 2.00 2.00 1.93 1.91 1.87 1.91 1.93 2.01 2.04 2.07 2.12 2.27 2.37 2.61 2.62 2.61 2.43 2.24 2.02 1.72 1.37 1.38 1.31 1.07 1.02 0.93
0.20 0.21 0.23 0.30 0.37 0.42 0.55 0.73 0.91 1.19 1.36 1.47 1.60 1.79 1.93 1.97 2.00 1.98 1.99 1.98 1.95 1.85 1.79 1.76 1.82 1.94 2.11 2.17 2.24 2.37 2.60 2.70 2.77 2.68 2.43 2.32 2.14 1.83 1.68 1.43 1.30 1.27 1.10
0.27 0.29 0.38 0.53 0.62 0.65 0.73 0.88 0.96 1.12 1.22 1.27 1.37 1.52 1.58 1.65 1.71 1.70 1.66 1.61 1.57 1.56 1.58 1.66 1.75 1.89 2.01 2.09 2.20 2.33 2.38 2.49 2.72 2.72 2.55 2.34 2.12 2.07 1.96 1.82 1.50 1.32 1.14
0.43 0.54 0.68 0.77 0.85 0.85 0.82 0.83 0.96 1.00 0.98 1.01 1.03 1.15 1.24 1.30 1.38 1.39 1.38 1.41 1.44 1.45 1.39 1.43 1.53 1.76 1.97 2.05 2.14 2.15 2.12 2.17 2.35 2.36 2.42 2.38 2.09 2.03 1.92 1.87 1.94 1.66 1.44
0.67 0.89 1.07 1.18 1.26 1.17 0.98 0.84 0.84 0.83 0.81 0.86 0.91 0.96 1.05 1.10 1.12 1.17 1.13 1.22 1.26 1.24 1.19 1.21 1.25 1.38 1.62 1.88 2.04 1.98 1.90 1.87 2.02 2.07 2.17 2.27 2.28 2.20 2.09 2.04 2.06 1.98 1.73
1.10 1.35 1.59 1.70 1.68 1.49 1.22 0.94 0.79 0.75 0.70 0.73 0.79 0.86 0.90 0.91 0.89 0.93 0.89 0.96 1.04 1.04 1.05 1.04 1.09 1.22 1.33 1.54 1.78 1.88 1.83 1.79 1.85 1.95 2.08 2.21 2.30 2.35 2.16 2.11 2.06 1.90 1.78
1.53 1.67 1.81 1.86 1.60 1.42 1.17 0.92 0.77 0.79 0.79 0.78 0.78 0.79 0.77 0.76 0.74 0.74 0.72 0.73 0.79 0.80 0.83 1.00 1.06 1.14 1.22 1.39 1.65 1.83 1.84 1.76 1.77 1.76 1.84 2.00 2.09 2.31 2.28 2.19 2.08 1.94 1.75
1.27 1.35 1.41 1.37 1.32 1.28 1.10 0.94 0.85 0.85 0.89 0.88 0.87 0.79 0.70 0.67 0.67 0.64 0.57 0.58 0.56 0.55 0.68 0.81 0.86 0.90 0.96 1.14 1.44 1.63 1.67 1.64 1.56 1.55 1.66 1.87 2.03 2.25 2.36 2.32 2.18 2.07 1.91
1.10 1.10 1.10 1.11 1.14 1.11 0.99 0.97 0.95 0.94 0.94 0.92 0.82 0.74 0.68 0.60 0.55 0.49 0.45 0.51 0.53 0.58 0.68 0.78 0.84 0.86 0.92 0.96 1.07 1.23 1.35 1.35 1.29 1.33 1.38 1.43 1.60 1.88 2.08 2.13 2.16 2.18 2.14
0.86 0.87 0.91 0.94 1.03 1.00 0.96 0.91 0.87 0.92 1.01 1.06 0.96 0.85 0.74 0.62 0.57 0.50 0.45 0.44 0.46 0.53 0.60 0.65 0.73 0.81 0.88 0.89 0.91 0.94 1.01 1.03 1.09 1.15 1.20 1.22 1.25 1.45 1.63 1.75 1.97 2.19 2.20
0.55 0.60 0.64 0.64 0.62 0.59 0.61 0.63 0.69 0.80 0.95 1.08 1.07 0.93 0.74 0.61 0.55 0.50 0.43 0.41 0.41 0.43 0.49 0.56 0.60 0.67 0.76 0.85 0.88 0.76 0.73 0.80 0.91 0.95 0.93 0.94 1.02 1.13 1.22 1.29 1.64 1.99 2.15
0.33 0.31 0.32 0.33 0.34 0.31 0.28 0.27 0.33 0.49 0.73 0.99 0.97 0.75 0.58 0.47 0.42 0.41 0.40 0.35 0.35 0.40 0.45 0.46 0.49 0.61 0.66 0.79 0.77 0.61 0.59 0.63 0.74 0.83 0.82 0.73 0.73 0.78 0.84 0.92 1.10 1.37 1.61
0.20 0.20 0.21 0.20 0.20 0.19 0.18 0.19 0.26 0.38 0.54 0.64 0.60 0.51 0.40 0.38 0.41 0.43 0.37 0.35 0.34 0.36 0.39 0.40 0.42 0.48 0.62 0.66 0.52 0.49 0.52 0.60 0.65 0.71 0.77 0.70 0.61 0.68 0.73 0.83 0.90 0.92 0.99
0.11 0.11 0.12 0.13 0.15 0.16 0.19 0.23 0.27 0.34 0.38 0.40 0.40 0.34 0.31 0.32 0.34 0.36 0.34 0.40 0.44 0.42 0.43 0.46 0.47 0.48 0.53 0.51 0.41 0.43 0.47 0.53 0.58 0.66 0.75 0.80 0.72 0.72 0.83 0.84 0.86 0.83 0.78
0.04 0.03 0.03 0.03 0.05 0.05 0.06 0.08 0.10 0.12 0.13 0.12 0.13 0.12 0.12 0.13 0.15 0.16 0.22 0.33 0.40 0.42 0.45 0.49 0.50 0.47 0.45 0.45 0.37 0.39 0.47 0.52 0.57 0.59 0.65 0.72 0.70 0.83 0.91 0.91 1.03 1.01 0.90
0.01 0.00 0.00 0.00 0.00 0.00 0.00 0.00 0.01 0.01 0.01 0.01 0.01 0.01 0.02 0.02 0.04 0.06 0.09 0.16 0.20 0.25 0.33 0.35 0.39 0.43 0.43 0.52 0.41 0.41 0.47 0.56 0.66 0.67 0.65 0.78 0.78 0.84 0.83 0.81 1.03 1.05 0.94
0.00 0.00 0.00 0.00 0.00 0.00 0.00 0.00 0.00 0.00 0.00 0.01 0.00 0.00 0.00 0.00 0.01 0.02 0.04 0.07 0.09 0.13 0.17 0.22 0.28 0.36 0.43 0.52 0.50 0.55 0.57 0.64 0.77 0.75 0.67 0.61 0.71 0.60 0.66 0.70 0.75 0.96 0.96
0.00 0.00 0.00 0.00 0.00 0.00 0.00 0.00 0.00 0.00 0.00 0.01 0.00 0.00 0.00 0.00 0.01 0.01 0.02 0.02 0.04 0.07 0.10 0.12 0.17 0.24 0.30 0.38 0.45 0.46 0.52 0.60 0.70 0.75 0.64 0.61 0.67 0.52 0.50 0.52 0.63 0.76 0.88
0.00 0.00 0.00 0.00 0.00 0.00 0.00 0.00 0.00 0.00 0.00 0.00 0.00 0.01 0.01 0.01 0.01 0.02 0.02 0.02 0.04 0.06 0.08 0.11 0.18 0.24 0.31 0.35 0.32 0.31 0.34 0.42 0.54 0.57 0.59 0.58 0.54 0.50 0.46 0.46 0.53 0.60 0.70
0.00 0.00 0.00 0.00 0.00 0.00 0.00 0.00 0.00 0.00 0.00 0.00 0.00 0.00 0.01 0.01 0.01 0.02 0.03 0.04 0.05 0.07 0.10 0.16 0.22 0.27 0.31 0.34 0.33 0.35 0.38 0.39 0.43 0.43 0.43 0.45 0.48 0.51 0.49 0.46 0.49 0.57 0.67
0.00 0.00 0.00 0.00 0.00 0.00 0.00 0.00 0.00 0.00 0.00 0.00 0.00 0.00 0.01 0.01 0.01 0.01 0.01 0.03 0.04 0.06 0.12 0.20 0.25 0.26 0.26 0.22 0.23 0.35 0.46 0.53 0.59 0.65 0.59 0.60 0.60 0.57 0.51 0.47 0.47 0.52 0.56
0.00 0.00 0.00 0.00 0.00 0.00 0.00 0.00 0.00 0.00 0.00 0.00 0.00 0.00 0.01 0.01 0.02 0.02 0.01 0.01 0.03 0.06 0.08 0.09 0.12 0.14 0.14 0.14 0.18 0.25 0.36 0.45 0.58 0.74 0.77 0.81 0.83 0.76 0.65 0.55 0.47 0.42 0.43